Regional Weather Roundup
Issued by NWS

Home | Current Version | Previous Version | Text Only | Print | Product List | Glossary Off
Versions: 1 2 3 4 5 6 7 8 9 10 11 12 13 14 15 16 17 18 19 20 21 22 23 24 25 26 27 28 29 30 31 32 33 34 35 36 37 38 39 40 41 42 43 44 45 46 47 48 49 50

604
ASUS45 KPSR 161010
RWRAZ

ARIZONA HOURLY REGIONAL WEATHER ROUNDUP
NATIONAL WEATHER SERVICE PHOENIX AZ
300 AM MST MON OCT 16 2017

NOTE: FAIR INDICATES FEW OR NO CLOUDS BELOW 12,000 FEET WITH NO
SIGNIFICANT WEATHER AND/OR OBSTRUCTIONS TO VISIBILITY.

AZZ001>003-036-161100-
NORTHWEST ARIZONA

CITY           SKY/WX    TMP DP  RH WIND       PRES   REMARKS
KINGMAN        CLEAR     45  12  26 E3        30.27F
$$

AZZ004>008-015-016-018-161100-
NORTH CENTRAL ARIZONA

CITY           SKY/WX    TMP DP  RH WIND       PRES   REMARKS
GRAND CANYON   PTCLDY    31  -3  23 NE7       30.46F WCI  24
WILLIAMS       PTCLDY    37   0  20 SE8       30.44F WCI  31
PRESCOTT       PTCLDY    45  17  32 SW3       30.35F
FLAGSTAFF      PTCLDY    28   2  32 CALM      30.47F
PAYSON           N/A     59  10  14 NE5       30.38F
PAGE           PTCLDY    45  16  31 CALM      30.40F
$$

AZZ009>014-017-161100-
NORTHEAST ARIZONA

CITY           SKY/WX    TMP DP  RH WIND       PRES   REMARKS
WINSLOW        MOCLDY    36   1  22 SE5       30.42F WCI  32
SAINT JOHNS    CLEAR     35   8  32 CALM      30.44F
WINDOW ROCK    CLEAR     24  -2  32 CALM      30.51F
SHOW LOW       CLEAR     39   7  26 CALM      30.47F
$$

AZZ540-542>544-546-548-161100-
GREATER PHOENIX AREA

CITY           SKY/WX    TMP DP  RH WIND       PRES   REMARKS
PHOENIX        CLEAR     73  31  21 SE3       30.06F
BUCKEYE        CLEAR     63  23  22 CALM      30.07S
LUKE AFB       CLEAR     66  26  22 N8        30.06F
DEER VALLEY    CLEAR     79  20  11 E7        30.09S
SCOTTSDALE     CLEAR     72  32  23 CALM      30.10F
MESA-GATEWAY   CLEAR     77  30  18 E10       30.09F
$$

AZZ539-553-161100-
SOUTHWEST MARICOPA COUNTY AND PINAL COUNTY

CITY           SKY/WX    TMP DP  RH WIND       PRES   REMARKS
CASA GRANDE    NOT AVBL
$$

AZZ503-504-507>509-161100-
SOUTHEAST ARIZONA

CITY           SKY/WX    TMP DP  RH WIND       PRES   REMARKS
TUCSON         CLEAR     72  31  22 SE10      30.18S
DAVIS-MONTHAN  CLEAR     75  27  16 SE3       30.16F
NOGALES        CLEAR     66  34  30 NE12      30.23F
SIERRA VISTA   CLEAR     59  29  32 N3        30.32F
DOUGLAS        CLEAR     54  30  40 NW8       30.29F
SAFFORD        CLEAR     61  27  27 SE10      30.31S
$$

AZZ532-161100-
SOUTHWEST ARIZONA

CITY           SKY/WX    TMP DP  RH WIND       PRES   REMARKS
YUMA           PTCLDY    76  12   8 N10       30.03F
$$

CAZ041-043-047-048-061-525>527-560>570-161100-
SOUTHERN CALIFORNIA

CITY           SKY/WX    TMP DP  RH WIND       PRES   REMARKS
DOWNTOWN L.A.  PTCLDY    70  32  24 CALM      30.06S
L.A. AIRPORT   PTCLDY    69  41  36 CALM      30.06S
SAN DIEGO      CLEAR     66  50  56 CALM      30.05F
BURBANK        PTCLDY    67  26  21 CALM      30.09S
ONTARIO        PTCLDY    65  32  29 NE3       30.10S
RIVERSIDE      PTCLDY    66  24  20 NE5       30.10S
PALM SPRINGS   PTCLDY    69  18  14 NW8       30.09F
EL CENTRO NAS  CLEAR     64  15  15 W7        30.05F
IMPERIAL       CLEAR     63  26  24 W3        30.03F
BLYTHE         CLEAR     65  11  12 SW5       30.08F
NEEDLES        CLEAR     65   8  10 VRB6      30.13F
$$

NVZ020-UTZ003-161100-
SOUTHERN NEVADA-UTAH

CITY           SKY/WX    TMP DP  RH WIND       PRES   REMARKS
LAS VEGAS      CLEAR     57  13  17 S6        30.23F
SALT LAKE CITY PTCLDY    37  28  70 SE5       30.41S WCI  33
$$

NMZ009-TXZ055-161100-
NEW MEXICO-WEST TEXAS

CITY           SKY/WX    TMP DP  RH WIND       PRES   REMARKS
ALBUQUERQUE    CLOUDY    45  26  47 N9        30.47S
EL PASO        PTCLDY    58  30  34 N3        30.41F
$$


........................KEY........................
SKY/WX - SKY CONDITION/WEATHER
TMP    - TEMPERATURE IN FAHRENHEIT
DP     - DEW POINT IN FAHRENHEIT
RH     - RELATIVE HUMIDITY IN PERCENT
WIND   - DIRECTION AND SPEED IN MILES PER HOUR (MPH)
VRB    - VARIABLE WIND DIRECTION
PRES   - MEAN SEA LEVEL PRESSURE IN INCHES OF MERCURY
         F - FALLING PRESSURE   R - RISING PRESSURE
         S - STEADY PRESSURE
VSB    - VISIBILITY IN MILES
HX     - HEAT INDEX IN FAHRENHEIT
WCI    - WIND CHILL INDEX IN FAHRENHEIT
TC     - TEMPERATURE IN CELSIUS WHICH IS ALSO KNOWN AS
         TEMPERATURE IN CENTIGRADE
AFB    - AIR FORCE BASE
         LUKE AFB IS LUKE AIR FORCE BASE
         DAVIS-MONTHAN IS DAVIS-MONTHAN AIR FORCE BASE
NAS    - NAVAL AIR STATION
         EL CENTRO NAS IS EL CENTRO NAVAL AIR STATION
N/A    - NOT AVAILABLE





USA.gov is the U.S. government's official web portal to all federal, state and local government web resources and services.